Location: Kitchener-Waterloo
(43.4500°N, 80.5000°W)
Time: 07:47:18
(UTC-04:00)

Daily predictions for brighter satellites

Satellite Brightness Start Highest point End
(mag) Time Altitude Azimuth Time Altitude Azimuth Time Altitude Azimuth
Meteor 1-24 Rocket 3.8 19:57:15 10° N 20:02:40 57° ENE 20:08:13 10° SSE
Cosmos 2082 Rocket 3.4 20:02:40 10° N 20:07:19 25° NE 20:11:56 10° ESE
Cosmos 2123 Rocket 4.2 20:01:39 10° N 20:07:48 50° ENE 20:13:52 10° SSE
Cosmos 405 3.4 20:05:14 10° SSW 20:08:45 69° WNW 20:12:15 10° N
Cosmos 1953 3.8 20:06:33 10° SE 20:09:15 17° E 20:11:57 10° NE
ALOS 2.2 20:11:04 10° SSE 20:15:44 76° ENE 20:20:25 10° N
USA 215 4.3 20:11:48 10° ENE 20:16:45 23° ESE 20:21:40 10° S
Meteor 2-5 Rocket 4.3 20:11:26 10° NNW 20:17:06 67° W 20:22:53 10° S
COSMOS 2406 4.4 20:15:16 10° NW 20:20:46 48° WSW 20:26:12 10° S
Cosmos 1766 3.2 20:21:24 10° S 20:25:13 66° E 20:29:06 10° NNE
Spot 2 Rocket 3.6 20:20:57 10° SSE 20:25:58 61° ENE 20:31:02 10° N
Lacrosse 5 rocket 3.0 20:25:02 10° NNW 20:28:01 20° NNE 20:30:54 10° ENE
Cosmos 1844 4.1 20:25:30 10° SSW 20:31:15 74° WNW 20:37:05 10° NNE
CZ-4B DEB 4.3 20:31:09 15° E 20:32:26 19° ENE 20:34:42 10° NNE
Resurs 1-3 3.6 20:30:28 10° SSE 20:34:48 66° ENE 20:39:10 10° N
Cosmos 990 Rocket 4.2 20:32:03 10° SSW 20:37:19 79° WNW 20:42:35 10° NNE
RESURS DK-1 2.8 20:35:38 10° NNW 20:39:44 63° WSW 20:43:48 10° SSE
BREEZE-M DEB (TANK) 3.1 20:37:52 10° SW 20:40:38 57° SE 20:47:45 10° ENE
Envisat 3.7 20:40:01 13° SE 20:44:04 34° ENE 20:48:38 10° N
Cosmos 1674 3.6 20:42:17 10° NNE 20:45:37 29° ENE 20:47:22 20° ESE
Cosmos 1408 Rocket 4.2 20:43:16 10° N 20:47:25 36° ENE 20:50:27 16° SE
Meteor 1-21 Rocket 4.4 20:43:41 10° N 20:49:24 54° ENE 20:55:09 10° SSE
Lacrosse 5 1.9 20:44:26 10° SW 20:49:30 84° NW 20:54:36 10° NE
USA 267 4.4 20:45:27 10° ENE 20:50:59 32° NNE 20:56:36 10° NW
Cosmos 1125 Rocket 3.7 20:46:27 10° S 20:51:24 48° ESE 20:56:25 10° NNE
Cosmos 2344 3.8 20:44:52 10° SW 20:52:32 82° NW 21:01:21 10° NE
CZ-2D R/B 3.2 20:49:34 10° SSE 20:53:25 89° WSW 20:57:20 10° NNW
BREEZE-M DEB (TANK) 3.8 20:50:36 10° SSW 20:53:48 32° SE 21:02:17 10° ENE
Cosmos 1048 Rocket 4.1 20:49:02 10° NNW 20:54:03 52° ENE 20:57:43 18° SE
Geosat 3.9 20:51:51 10° NNE 20:56:53 67° ESE 21:01:52 10° SSW
Timation 1 Rocket 4.3 20:51:32 10° S 20:57:26 61° ESE 21:03:22 10° NNE
SAR-Lupe-4 3.4 20:55:34 13° SSE 20:58:44 73° ENE 21:02:19 10° N
Cosmos 1805 3.1 20:54:55 10° S 20:58:49 84° E 21:02:44 10° N
Okean 3 Rocket 3.7 20:54:37 10° N 20:59:02 79° W 21:03:26 10° S
YAOGAN 6 4.3 20:59:41 18° ENE 20:59:41 18° ENE 21:02:08 10° NNE
Tiangong 1 3.0 20:59:46 10° WSW 21:01:54 18° SSW 21:03:03 15° S
In-Cosmos 22 4.4 20:58:19 10° NNW 21:03:36 67° W 21:08:49 10° S
ERS-1 Rocket 3.9 21:03:25 24° E 21:05:06 30° ENE 21:09:27 10° N
Abrixas 2.3 21:03:35 10° WNW 21:06:25 71° SSW 21:06:57 52° SE
SeaSat 1 4.2 21:07:35 10° S 21:11:54 31° WSW 21:16:16 10° NW
Cosmos 1470 3.0 21:12:27 32° SE 21:13:49 45° E 21:17:37 10° NNE
USA 186 2.0 21:15:09 37° SW 21:15:32 42° W 21:17:41 10° NNW
Cosmos 1340 Rocket 3.1 21:12:43 10° N 21:16:35 43° ENE 21:17:07 41° E
Cosmos 1833 Rocket 2.6 21:12:31 10° NNW 21:18:10 72° ENE 21:21:14 28° SE
Meteor 1-29 2.8 21:14:47 10° NNE 21:18:16 72° ESE 21:21:00 16° S
SAR-Lupe-1 4.2 21:16:04 20° S 21:18:24 73° WSW 21:22:00 10° NNW
H-2A R/B (2) 4.1 21:18:09 10° SSW 21:20:27 14° SSE 21:20:58 14° SSE
Cosmos 1076 Rocket 3.7 21:17:06 10° NNW 21:21:20 69° W 21:25:13 12° S
Cosmos 1818 3.7 21:16:09 10° NW 21:21:35 71° WSW 21:25:02 23° SSE
Cosmos 2278 Rocket 3.1 21:17:18 10° SW 21:22:48 51° WNW 21:28:21 10° NNE
COSMOS 2487 2.3 21:19:16 10° NNW 21:22:52 87° ENE 21:23:40 52° SSE
OE (NEXTSAT) 4.4 21:19:47 10° WSW 21:23:23 81° NNW 21:24:09 53° ENE
GP-B 3.1 21:19:42 10° S 21:24:09 86° W 21:28:37 10° N
Meteor 1-4 Rocket 3.1 21:22:06 10° SSW 21:25:30 55° WNW 21:28:56 10° N
Cosmos 2251 Rocket 4.3 21:20:55 10° N 21:25:42 33° ENE 21:26:30 31° ENE
Helios 1B rocket 2.5 21:22:12 10° N 21:26:20 76° WNW 21:30:26 10° SSW
Cosmos 2016 Rocket 4.2 21:24:18 26° SE 21:27:21 44° E 21:33:09 10° NNE
Cosmos 1733 3.1 21:27:32 54° SE 21:28:08 64° E 21:32:00 10° NNE
Resurs 01 Rocket 3.6 21:24:38 10° SSW 21:28:27 29° W 21:32:19 10° NW
SJ-11-01 4.2 21:26:00 28° SSE 21:28:30 81° ENE 21:33:14 10° N
CZ-3B DEB 3.3 21:21:04 10° WSW 21:30:33 50° NW 21:34:48 11° NE
Cosmos 1269 Rocket 4.1 21:25:24 10° NNW 21:30:42 75° WSW 21:33:58 24° S
Cosmos 1766 Rocket 3.7 21:27:01 10° NNW 21:31:30 76° W 21:34:17 23° S
SWAS 4.3 21:32:21 10° SSW 21:36:36 70° ESE 21:40:55 10° NNE
Helios 1A 4.0 21:33:37 12° S 21:37:12 44° W 21:41:14 10° NNW
Cosmos 2297 3.8 21:31:40 10° SSW 21:37:23 81° WNW 21:43:10 10° NNE
ATLAS 5 CENTAUR R/B 1.7 21:33:41 10° SSW 21:38:16 60° ESE 21:43:18 10° NE
Cosmos 2100 Rocket 3.9 21:35:33 10° S 21:41:52 86° E 21:48:17 10° N
Meteor 1-11 4.5 21:38:24 10° N 21:43:44 45° ENE 21:44:04 44° E
Cosmos 1953 3.9 21:41:37 10° SW 21:45:24 36° WNW 21:49:11 10° N
SL-14 R/B 4.4 21:43:26 10° N 21:45:45 31° NNE 21:45:45 31° NNE
Cosmos-2242 3.2 21:44:00 15° SSW 21:47:25 68° W 21:51:40 10° N
Cosmos 1939 Rocket 3.2 21:46:50 46° SSW 21:47:54 66° W 21:52:03 10° NNW
Tsikada Rocket 4.3 21:42:49 10° N 21:48:45 45° ENE 21:49:15 44° E
Cosmos 2082 Rocket 2.7 21:46:13 10° NNW 21:51:47 57° WSW 21:54:35 29° S
Cosmos 372 Rocket 4.3 21:48:39 10° SSW 21:53:43 64° WNW 21:58:51 10° NNE
Cosmos 1867 3.9 21:52:40 10° SW 21:58:04 64° NW 22:03:32 10° NNE
Meteor 1-16 Rocket 4.2 21:58:15 58° SE 21:59:10 67° E 22:05:03 10° NNE
USA 215 3.1 21:53:46 10° NE 22:00:21 83° SE 22:06:53 10° SW
Cosmos 1802 Rocket 3.9 21:56:21 13° S 22:01:50 85° W 22:08:03 10° N
Cosmos 1271 Rocket 3.7 22:00:43 30° SW 22:02:18 49° WNW 22:06:14 10° N
Cosmos 1743 Rocket 3.6 21:58:44 10° NNW 22:03:10 74° W 22:03:13 74° WSW
H-2A R/B 4.4 22:06:50 13° NNE 22:06:50 13° NNE 22:07:28 10° NNE
Cosmos 1500 Rocket 3.9 22:00:58 10° N 22:04:27 57° N 22:04:27 57° N
Lacrosse 5 rocket 2.2 22:03:51 10° NW 22:06:37 44° NW 22:06:37 44° NW
ARGOS 3.4 22:10:26 53° NE 22:10:26 53° NE 22:15:06 10° N
MetOp-A 4.0 22:11:08 79° ENE 22:11:08 79° ENE 22:16:31 10° NNW
Cosmos 2061 Rocket 4.4 22:07:19 10° SSW 22:13:39 65° W 22:20:04 10° N
Cosmos 494 Rocket 4.0 22:11:55 10° NNW 22:16:35 74° N 22:16:35 74° N
H-2A R/B 3.1 22:24:05 36° NNE 22:24:05 36° NNE 22:27:40 10° N
Cosmos 1816 Rocket 4.4 22:19:03 10° N 22:24:52 69° NE 22:24:52 69° NE
Lacrosse 5 3.9 22:28:55 10° WNW 22:33:07 25° NNW 22:36:05 15° NNE
USA 267 3.3 22:32:47 63° ENE 22:33:18 66° NE 22:39:47 10° NW
SPOT 5 3.4 22:35:43 65° NW 22:35:43 65° NW 22:40:21 10° NNW
ERS-1 Rocket 4.2 22:43:25 34° WSW 22:43:46 34° W 22:48:22 10° NNW
Terra 3.9 23:00:29 21° N 23:00:29 21° N 23:02:10 10° N
ATLAS 5 CENTAUR R/B 3.9 23:19:23 10° W 23:23:23 25° NW 23:27:43 10° NNE
USA 215 4.3 23:37:00 10° NE 23:43:00 40° NNW 23:48:58 10° W
